Home > Weather > Guilin > Past weeks

Flag for China Past Weather in Guilin, Guangxi, China — Yesterday and Last 2 Weeks

Now
77 °F

Broken clouds.


Feels Like: 78 °F
Forecast: 72 / 86 °F
Wind: 1 mph from North

Location: Guilin Airport

Current Time: May 25, 2016 at 3:24:25 PM

Latest Report: May 25, 2016 at 3:00 PM


Visibility: 5 mi

Pressure: 29.71 "Hg

Humidity: 83%

Dew Point: 72 °F

Location of GuilinLocation

Past Weather in Guilin — Graph

°F

Guilin Temperature Yesterday

Maximum temperature yesterday: 72 °F (at 4:00 PM)
Minimum temperature yesterday: 68 °F (at 1:00 AM)
Average temperature yesterday: 69 °F

High & Low Weather Summary for the Past Weeks

 TemperatureHumidityPressure
High88 °F (May 11, 3:00 PM)100% (May 11, 12:00 AM)30.09 "Hg (May 11, 12:00 AM)
Low55 °F (May 16, 6:00 AM)32% (May 16, 1:00 PM)29.65 "Hg (May 19, 5:00 PM)
Average72 °F85%29.86 "Hg
* Reported May 10 2:00 PM — May 25 2:00 PM, Guilin, Weather by CustomWeather, © 2016

Note: Actual official high and low records may vary slightly from our data, if they occured in-between our weather recording intervals... More about our weather records

Advertising

Guilin Weather History for the Previous 24 Hours

Scroll right to see more
 ConditionsComfort  
Time TempWeatherWind HumidityBarometerVisibility
2:00 PM
Wed, May 25
77 °FMore clouds than sun.1 mph83%29.74 "Hg5 mi
1:00 PM75 °FMore clouds than sun.1 mph83%29.77 "Hg5 mi
12:00 PM73 °FMore clouds than sun.1 mph89%29.77 "Hg5 mi
11:00 AM72 °FMostly cloudy.1 mph94%29.77 "Hg4 mi
10:00 AM72 °FFog.No wind94%29.80 "Hg3 mi
9:00 AM70 °FFog.No wind100%29.80 "Hg2 mi
8:00 AM68 °FFog.No wind100%29.80 "Hg2 mi
7:00 AM68 °FFog.No wind100%29.77 "Hg2 mi
6:00 AM68 °FFog.No wind100%29.74 "Hg2 mi
5:00 AM68 °FLight rain. Fog.No wind100%29.74 "Hg2 mi
4:00 AM68 °FFog.1 mph100%29.74 "Hg2 mi
3:00 AM68 °FFog.3 mph100%29.74 "Hg2 mi
2:00 AM68 °FFog.1 mph100%29.77 "Hg3 mi
1:00 AM68 °FFog.3 mph100%29.77 "Hg3 mi
12:00 AM68 °FFog.No wind100%29.80 "Hg3 mi
11:00 PM
Tue, May 24
70 °FMostly cloudy.No wind100%29.80 "Hg4 mi
10:00 PM70 °FMostly cloudy.No wind100%29.80 "Hg4 mi
9:00 PM70 °FMostly cloudy.No wind94%29.80 "Hg4 mi
8:00 PM70 °FMostly cloudy.No wind100%29.80 "Hg4 mi
7:00 PM70 °FMostly cloudy.No wind94%29.77 "Hg5 mi
6:00 PM70 °FOvercast.1 mph88%29.77 "Hg4 mi
5:00 PM72 °FLight rain. More clouds than sun.3 mph88%29.80 "Hg4 mi
4:00 PM72 °FLight rain. Fog.1 mph88%29.80 "Hg3 mi
3:00 PM70 °FLight rain. Fog.No wind94%29.83 "Hg3 mi
Weather by CustomWeather, © 2016

See weather overviewHow to use our weather pages